Utilitzem cookies pròpies i de tercers per millorar la seva experiència i els nostres serveis,analitzant la navegació en el nostre Lloc Web. Si continua navegant, vostè està acceptant el seu ús. Podeu obtenir més informació a la nostra Política de cookies. OK

En viu: El Trail 55 Km

El Trail 55 Km

Resultats provisionals

Potser que algun punt de control no tingui connexió a internet o la tingui deficient.

En aquest cas els passos no es podran visualitzar en directe i aniran apareixent a mesura que siguin transmesos des dels punts de control.

CASTELL DE LLAERS - Intermig


11
Pendents

267
Han passat

Homes

# - Posició P.C. - Participant Temps Dorsal

1 - 1 - MARTI LAZARO CORDERO 01:31:03 1318

2 - 2 - LLUíS RUIZ OLLER 01:31:04 1331

3 - 3 - NIL GAJA BALLARÓ 01:36:11 1080

4 - 4 - JORDI DELGADO SANGLAS 01:36:13 1062

5 - 5 - DANI AGUIRRE ARDANAZ 01:42:40 1227

6 - 6 - GUILLEM ALBA GARCIA 01:42:55 1105

7 - 7 - DAVID TERUEL HUGUET 01:42:59 1327

8 - 8 - DAVID SEREROLS TORRAS 01:45:26 1017

9 - 9 - DANIEL ALMONACID VICTORIANO 01:46:20 1015

10 - 10 - ALBERT GARCIA COBOS 01:46:24 1287

11 - 11 - NAïM BAULENAS SANGLAS 01:46:30 1202

12 - 12 - JOEL VALLDOSERA SáNCHEZ 01:47:24 1044

13 - 13 - PAU CASTANYER BENAVENT 01:48:32 1161

14 - 14 - ABEL BELTRAN CAMPILLO 01:48:32 1211

15 - 15 - CRISTIAN LOPEZ REYES 01:49:15 1056

16 - 16 - ARNAU AMADÓ BASSOLS 01:49:20 1165

17 - 17 - ALBERT SÁNCHEZ CRIBALLÉS 01:49:23 1134

18 - 18 - DANI FLORES HERNANDEZ 01:49:23 1306

19 - 19 - JESúS ÁLVAREZ MORALES 01:49:25 1245

20 - 20 - FRANCESC ROIG 01:50:43 1051

21 - 21 - GERARD CIURANS TIRADO-MIGUEIZ 01:51:10 1226

22 - 22 - XAVI BERNAL BAENA 01:53:13 1252

23 - 24 - OSCAR PEREZ MILLAN 01:54:06 1186

24 - 25 - MIQUEL AULADELL DORDAL 01:54:11 1304

25 - 26 - GERARD SALARICH CROSAS 01:55:03 1146

26 - 27 - JORDI ALEMANY QUINTANA 01:55:37 1336

27 - 28 - JORDI TORRENT PARCET 01:55:50 1210

28 - 30 - XAVIER MIRANDA MIRANDA BEGUE 01:56:27 1083

29 - 31 - CRISTIAN TERINGUER CANELA 01:56:28 1157

30 - 32 - AITOR LóPEZ ALCAY 01:57:20 1335

31 - 33 - UNAI ARTETA CASTELAR 01:57:25 1321

32 - 34 - JORDI CASANOVAS SABARIEGO 01:57:39 1269

33 - 35 - JOSEP MORENO CARRERA 01:57:58 1145

34 - 36 - VICENS RIOS GALLART 01:58:11 1022

35 - 37 - ERIC NAVARRO NAJAR 01:58:16 1006

36 - 40 - LLORENç CAñíS 01:59:58 1213

37 - 41 - JUAN MARQUEZ LOPEZ 02:00:04 1198

38 - 42 - ALBERT FABRé LLORENS 02:00:37 1191

39 - 43 - JOSEP ZANUY 02:00:42 1187

40 - 44 - ALEIX MORERA ROCA 02:01:19 1288

41 - 45 - ROGER PEIX SOLER 02:02:35 1033

42 - 46 - ENRIC SERRATOSA SOLà 02:02:37 1236

43 - 47 - CAIN CHRISTOFOROU 02:03:10 1201

44 - 49 - DAVID LOPEZ CALPE 02:03:19 1223

45 - 50 - PAU SERRA ESCANDELL 02:03:20 1098

46 - 51 - ALEJANDRO AZORÍN RODRÍGUEZ 02:03:39 1100

47 - 52 - CARLES VIDAL BARRERA 02:03:43 1103

48 - 53 - GENíS BAYéS COSTA 02:03:46 1109

49 - 54 - GUIFRÉ PORQUERES PLANELLES 02:05:06 1194

50 - 55 - JAVI FERNANDEZ NAVARRO 02:05:09 1159

51 - 56 - RAMóN BORREGUERO SANCHEZ 02:05:09 1230

52 - 57 - RAMON CASERRAS GUERRERO 02:05:47 1153

53 - 58 - CARLES AMETLLER SULA 02:06:10 1128

54 - 60 - JONATHAN ANTONI CIERCO 02:07:32 1041

55 - 61 - FERNANDO BARCOS NAVARRO 02:07:50 1172

56 - 62 - MIQUEL MUZáS ESPUNY 02:07:55 1205

57 - 63 - JORDI PLANS CONTEL 02:07:59 1117

58 - 65 - JOSEP GARCIA BORRAS 02:08:03 1093

59 - 66 - ISMAEL ALZINA CARRERAS 02:08:22 1299

60 - 67 - ÒSCAR GONZàLEZ GONZàLEZ 02:08:22 1027

61 - 68 - SERGIO LEAL LOPEZ 02:08:27 1276

62 - 69 - JAUME CORELLA VIVó 02:08:40 1171

63 - 71 - RAüL JORGE ANGUITA 02:09:01 1254

64 - 73 - FRANCESC CAZORLA MUñOZ 02:09:09 1324

65 - 74 - RUBEN GARCIA CALDERON 02:09:14 1176

66 - 75 - ALBERT ARUMí CATALà 02:09:14 1013

67 - 76 - ANGEL ARUMI JIMENEZ 02:09:16 1325

68 - 78 - JUAN MANZANO RUBIO 02:10:00 1131

69 - 79 - LLORENç REIXACH CRUZ 02:10:04 1016

70 - 80 - ISIDRO GIL PÉREZ 02:10:24 1320

71 - 81 - ROGER GIL BERTRAN 02:10:53 1231

72 - 82 - MARCEL BUENO BRUGUES 02:10:54 1133

73 - 83 - NIL GRI LLEBOT 02:10:58 1045

74 - 84 - JUAN MIGUEL DE LA TORRE MORALES 02:11:08 1216

75 - 85 - RICARD CASTAñO SOLER 02:11:14 1267

76 - 86 - DAVID DE LA COBA ALQUEZAR 02:11:20 1285

77 - 87 - ROBERTO BAÑOS GONZALEZ 02:11:24 1180

78 - 88 - GUILLEM LOPEZ FAGEDA 02:11:26 1148

79 - 89 - ORIOL SALA PUIGDERRAJOLS 02:11:33 1119

80 - 90 - JUAN ANTONIO VIÑUELA GONZALEZ 02:11:33 1206

81 - 91 - SERGIO ASENSIO ROMERO 02:11:38 1184

82 - 93 - ANGEL BOTELLO ARMENGOL 02:11:47 1032

83 - 94 - PERE LOPEZ SORIANOO 02:11:52 1053

84 - 95 - ROBERT PLANAS COLL 02:11:52 1049

85 - 97 - IGNACIO FABEIRO GONZALEZ 02:11:53 1277

86 - 98 - ANTONI BADIA MUNIENTE 02:11:55 1312

87 - 100 - IGNASI SERRANO COLL 02:12:06 1323

88 - 101 - JOSEP A JARAMILLO CALDERóN 02:12:06 1188

89 - 102 - DAVID VILCHEZ MORENO 02:12:32 1281

90 - 103 - JOSEP BAROT CASANY 02:12:34 1021

91 - 104 - ANDREU LóPEZ ANADóN 02:12:59 1009

92 - 105 - JOAN AGUSTí NúñEZ GENESTóS 02:13:01 1079

93 - 109 - ADRIA NOTARIO BARDAJI 02:13:45 1256

94 - 110 - ORIOL FERNANDEZ HOSPITAL 02:13:52 1089

95 - 111 - PEDRO MOLINA RODRIGUEZ 02:13:52 1087

96 - 112 - ANTON VILARDELL AGULLó 02:13:54 1028

97 - 113 - GUILLEM PADROSA DANéS 02:14:06 1322

98 - 114 - JOSEP FARRERA SINFREU 02:14:26 1270

99 - 115 - RAFAEL LOPéZ RECHE 02:14:54 1242

100 - 118 - OLIVER GALLEGO NAJAR 02:15:16 1014

101 - 119 - ENRIC COROMINAS I BOSCH 02:15:21 1046

102 - 120 - NIS MATEU BOIXADERAS 02:15:22 1139

103 - 121 - DAVID GAZQUEZ GARCIA 02:15:25 1150

104 - 122 - DANIEL RODRíGUEZ PEREZ 02:15:25 1010

105 - 123 - MARIUS GAMISSANS SALA 02:15:30 1147

106 - 124 - ABEL CANALDA 02:15:37 1104

107 - 126 - DAVID CARRERAS GONZáLEZ 02:15:44 1108

108 - 127 - DAVID MUñOZ CASELLAS 02:15:44 1319

109 - 128 - TOMAS LOPEZ ZORNOZA 02:15:56 1154

110 - 129 - DIEGO BARROSO BERMEJO 02:16:01 1059

111 - 130 - OSCAR MORAL HIDALGO 02:16:02 1257

112 - 131 - ALBERT TORRENS VIVES 02:16:29 1296

113 - 132 - JUAN CARLOS ABELEDO SANCHEZ 02:17:07 1167

114 - 133 - PLACI ABELEDO SANCHEZ 02:17:11 1160

115 - 134 - BERNAT GORDUN QUILES 02:17:40 1310

116 - 135 - JULIA FRANCH NADAL 02:17:55 1268

117 - 136 - XAVIER CAMPS BAGET 02:18:16 1253

118 - 137 - FERRAN MELERO VIGARA 02:18:19 1137

119 - 138 - DAVID MIGUEL SUAREZ 02:18:20 1197

120 - 139 - JORDI CASACUBERTA JIMENEZ 02:18:20 1282

121 - 140 - ANTONIO MORALES MARTINEZ 02:18:27 1138

122 - 141 - DIEGO CARRETERO RODRIGUEZ 02:18:30 1301

123 - 142 - ALEJANDRO RUBIO GONZALEZ 02:18:56 1293

124 - 143 - DANIEL BRUN RAMIREZ 02:19:15 1018

125 - 144 - TONI MARQUEZ JIMENEZ 02:19:15 1039

126 - 146 - ROGER FERRER I PLANAS 02:19:32 1142

127 - 147 - JAUME BARRIACH GAYA 02:19:49 1174

128 - 148 - YAN MAURAKH - 02:19:51 1328

129 - 149 - DAVID LEIVA ROLDAN 02:20:12 1075

130 - 150 - CRISTóBAL M. MACARRO CANO 02:20:37 1011

131 - 151 - JOAN CALLEJON BOQUERA 02:20:39 1240

132 - 152 - JORDI TOLDOS BUENO 02:21:03 1082

133 - 153 - JOSE PEREZ GONZALEZ 02:21:04 1048

134 - 154 - TONI SALAS PALLICER 02:21:28 1248

135 - 155 - JULIO LLORENTE CASTILLO 02:21:30 1084

136 - 156 - STEFAN GABRIEL DEL BRIO DI NOTO 02:21:39 1221

137 - 157 - PEPE PORRAS JIMENEZ 02:21:44 1219

138 - 158 - TONI PORRAS JIMENEZ 02:21:47 1208

139 - 159 - JUAN ANTONIO CAZORLA ZAMBRANA 02:21:55 1289

140 - 160 - DANIEL CARBONELL MERINO 02:22:01 1007

141 - 161 - AURELIAN OANCEA . 02:22:27 1333

142 - 162 - MOISES PLUJA BLANCH 02:22:32 1283

143 - 163 - JORGE FERNANDEZ LIROLA 02:22:40 1061

144 - 164 - KRLOS MARTíNEZ GUERRA 02:22:48 1149

145 - 165 - ALBERT SALA SIDERA 02:22:49 1063

146 - 166 - ISMAEL COBO PIMENTEL 02:22:57 1095

147 - 167 - RAFO IGLESIAS LOBO 02:23:02 1305

148 - 168 - XAVIER SOLER I BOSCH 02:23:05 1120

149 - 169 - JOSE ANGEL REVELLES NúñEZ 02:23:13 1042

150 - 170 - MARC CASES 02:23:44 1261

151 - 172 - MARCEL TORT FERNANDEZ 02:23:58 1141

152 - 173 - MOISES OLMEDA 02:24:02 1008

153 - 174 - ISIDRE ESCAYOLA GARCIA DEL PRADO 02:24:26 1067

154 - 175 - SALVATORE MESEGUE VALERO 02:24:32 1291

155 - 176 - XAVIER PUIG ESCUDERO 02:24:40 1086

156 - 177 - JOAN MARESMA NUALART 02:24:58 1012

157 - 178 - JORDI DE LA VEGA ARUS 02:25:28 1279

158 - 179 - JAUME SOBRERROCA ALSINA 02:25:34 1235

159 - 180 - LLUIS RIBES CASTRO 02:26:17 1123

160 - 181 - DAVID DIAZ MAYOR 02:26:34 1030

161 - 182 - MARC CASANOVA BELLO 02:26:36 1054

162 - 184 - SERGI CAPDEVILA NORTES 02:26:39 1132

163 - 185 - IGNASI BASSAS BUJ 02:26:40 1129

164 - 186 - ENRIC BLANCAFORT MUMBRIU 02:26:51 1200

165 - 187 - JAVITO RUIZ 02:27:11 1314

166 - 188 - JOSEP CALI CABEZA 02:27:15 1085

167 - 189 - ROGER BATALLA CARABASSA 02:27:16 1122

168 - 190 - VICTOR RODRIGUEZ BARCONES 02:27:26 1121

169 - 192 - DAVID ROS HOMS 02:27:54 1207

170 - 193 - ALBERT MESTRES SUGRAñES 02:27:55 1004

171 - 195 - PERE FRANCH ANTONELL 02:28:20 1055

172 - 197 - JORDI FRANCH ANTONELL 02:28:39 1068

173 - 198 - TONI MAESTRE GARCIA 02:28:42 1050

174 - 199 - GUIDO CANCARINI CAPPONI 02:28:42 1136

175 - 200 - AITOR MATA MARTÍNEZ 02:28:43 1088

176 - 201 - ALEIX DANOT CUCH 02:28:44 1260

177 - 202 - XAVIER FABRE HEREDIA 02:28:45 1222

178 - 203 - SERGI ALSINA LLORENTE 02:28:52 1060

179 - 204 - DAVID GARCIA FERNANDEZ 02:28:55 1020

180 - 205 - MIQUEL RAMOS LOPEZ 02:29:04 1173

181 - 206 - ADAM CARBONELL VISO 02:29:56 1244

182 - 207 - ALBERT COLS VAZQUEZ 02:30:02 1307

183 - 208 - CARLES RAMOS SOLE 02:30:25 1003

184 - 211 - JORDI ANGLADA CASAS 02:31:20 1255

185 - 212 - TONI DONIGA 02:31:24 1233

186 - 214 - DAVID DONIGA VERA 02:31:29 1217

187 - 215 - XEVI PALLAROLS PALLàS 02:31:33 1292

188 - 216 - F. XAVIER FABREGAT CASAL 02:31:38 1127

189 - 217 - CARLOS CARRASCOSA TOMAS 02:31:38 1243

190 - 218 - XAVI DÍAZ VENDRELL 02:31:47 1170

191 - 219 - JAUME FABREGAT GOU 02:31:50 1196

192 - 220 - JOAN BULDó I POLLS 02:32:34 1166

193 - 221 - PERE SEGURA GARSABALL 02:32:40 1273

194 - 222 - JOSé MARíA FERRER GIRóN 02:33:05 1026

195 - 223 - DANIEL JEREZ CEBALLOS 02:33:09 1034

196 - 224 - PACO GARCIA RUIZ 02:33:18 1247

197 - 225 - RAUL JIMENEZ RIVERO 02:33:26 1107

198 - 226 - GERARD GARCIA MONTSERRATE 02:33:32 1263

199 - 228 - BRIAN MEDINA GRANADOS 02:33:40 1262

200 - 230 - ARNAU GRANé MASFRET 02:34:36 1265

201 - 231 - MARC MOLINE RODRIGUEZ 02:34:42 1259

202 - 232 - ROGER GARCIA SUBIRANA 02:34:45 1258

203 - 233 - VICTOR RUBIA GARCíA 02:36:59 1143

204 - 234 - JAN OLIVERES GONZALEZ 02:37:22 1334

205 - 235 - PEDRO MIGUEL PERELLó PALLISER 02:38:29 1295

206 - 236 - TONI AMBLAS MOLINA 02:38:43 1294

207 - 237 - ALBERT CUTRINA RUBIO 02:38:46 1114

208 - 238 - SALVA PILES MARTIN 02:39:23 1241

209 - 239 - MARC MASNOU RUBIó 02:39:31 1113

210 - 240 - IñAKI ALONSO DE LOS SANTOS 02:39:31 1116

211 - 241 - JUSTO MARTIN SIMON 02:39:34 1073

212 - 242 - ALBERTO PLAZA GAMITO 02:39:35 1225

213 - 243 - XEVI HERNANDEZ CLOTA 02:39:36 1115

214 - 244 - MARC SERRAT DIAZ 02:39:43 1005

215 - 245 - DANIEL LOPEZ SANCHEZ 02:39:58 1130

216 - 247 - JOHN FÉLIX BIGGS GÓMEZ 02:40:12 1158

217 - 249 - JOSEP PERELLO 02:42:11 1309

218 - 250 - JORDI RIU MUDARRA 02:42:16 1019

219 - 251 - EDUARD CAPDEVILA ROMEU 02:42:18 1057

220 - 252 - ORIOL BAIXAS MORALES 02:43:12 1135

221 - 253 - GONZALO VELASCO REINA 02:43:42 1274

222 - 254 - SERGI GALLEGO ARJONA 02:43:44 1215

223 - 255 - ALBERT SOLER FREIXER 02:43:46 1035

224 - 256 - ADRIÀ SOLER ABIAN 02:43:49 1118

225 - 257 - ALFONSO AGUILERA GARCIA 02:45:06 1110

226 - 258 - CéSAR ARRANZ FERNANDEZ 02:45:08 1112

227 - 259 - TONI RUIZ JOVER 02:46:35 1040

228 - 262 - FRANCISCO ANTONIO BARCELÓ MARTÍNEZ 02:47:07 1218

229 - 263 - IVAN JIMéNEZ RODà 02:47:30 1193

230 - 264 - JOSEP NAVARRO GARCíA 02:47:31 1076

231 - 265 - XAVIER MARTíNEZ CAPABLO 02:47:36 1052

232 - 266 - XAVI ALVAREZ ESTANY 02:48:05 1264

233 - 268 - JOAN BACH CODINA 02:48:52 1316

234 - 269 - DAVID LEO HEREDIA 02:52:19 1106

235 - 270 - JULIO BERRAL LOPEZ 02:56:22 1178

236 - 271 - JORDI FIGULS GOMEZ 02:56:30 1183

237 - 273 - MIGUEL ÁNGEL PéREZ BELBIS 02:57:24 1177

238 - 274 - ADRIA SALANUEVA 02:59:57 1266

239 - 275 - DAVID COSTA SAMBLAS 03:00:03 1179

240 - 278 - SANTIAGO RIOS AZUARA 03:01:04 1029

241 - 279 - RAMON CAIHUELAS QUILES 03:10:22 1097

Dones

# - Posició P.C. - Participant Temps Dorsal

1 - 23 - ANGELS LLOBERA VICENS 01:53:20 1330

2 - 29 - CAROLINA RIUS HERNANDEZ 01:56:17 1308

3 - 38 - SUSANA MORENO MORATONA 01:58:54 1151

4 - 48 - CLAUDIA BOSCH RODERO 02:03:16 1224

5 - 59 - JELENA MALYSEVA -- 02:06:21 1300

6 - 64 - SANDRA MARIA VALENZUELA MENA 02:08:03 1195

7 - 92 - ELENA SANCHEZ GOMEZ 02:11:43 1315

8 - 96 - EROLA TORTADèS VERDAGUER 02:11:53 1002

9 - 106 - ALICIA GARRIDO SERRA 02:13:05 1313

10 - 108 - ROCIO RIOS ORTEGA 02:13:34 1043

11 - 116 - TERESA FORN MUNNE 02:14:54 1290

12 - 125 - EVA MARIA TAPIA LUQUE 02:15:39 1239

13 - 145 - NEUS PEIRÓ PIFARRÉ 02:19:27 1311

14 - 171 - SARA GARRE PELEGRINA 02:23:56 1031

15 - 183 - MARIBEL ALFARO NOGUERA 02:26:36 1234

16 - 191 - MARTA SEGURA PARRA 02:27:49 1077

17 - 196 - PAULA ALSINA ROSANAS 02:28:20 1070

18 - 209 - THAIS JORBA DELGADO 02:30:26 1096

19 - 246 - CRISTINA GARCIA PEREZ 02:40:08 1081

20 - 248 - ELISABET BUERA PORTA 02:41:03 1298

21 - 260 - CARLA LóPEZ PéREZ 02:46:57 1074

22 - 261 - ANNA TRISTANY CODINA 02:47:04 1185

23 - 267 - ISABEL COVAS BERNAL 02:48:48 1317

24 - 276 - MARTA ESCALE MORALES 03:00:17 1209

Publicitat